Date String (YYYY-MM-DD hh:mm:ss) UTC,Instrument flags,Ambient pressure (hPa),Sample flow (lpm),Bypass flow (lpm),Sample temperature (°C),Ambient temperature (°C),ASC tube jacket temperature (°C),LED temperature (°C),Box temperature (°C),Sample RH (%),Span deviation,Mass concentration (μg/m³),Mass concentration (μg/m³),Mass concentration (μg/m³)
DateTimeUTC,F1_M11,P_M11,Q1_M11,Q2_M11,T1_M11,T2_M11,T3_M11,T4_M11,T5_M11,U1_M11,ZSPAN_M11,X2_M11,X0_M11,X1_M11
2021-12-30 19:00:00,,0807.0,5.00,0.00,22.3,21.5,00.0,31.5,23.9,06.6,0000.0,0002.03,0013.38,0000.32
2021-12-30 19:01:00,,0807.1,5.01,0.00,22.3,21.3,00.0,31.5,23.8,06.8,0000.0,0002.20,0014.59,0000.34
2021-12-30 19:02:00,,0807.1,5.01,0.00,22.2,21.2,00.0,31.4,23.8,06.9,0000.0,0002.25,0014.41,0000.35
2021-12-30 19:03:00,,0807.0,4.99,0.00,22.1,21.2,00.0,31.4,23.7,06.9,0000.0,0002.20,0013.55,0000.34
2021-12-30 19:04:00,,0806.3,5.00,0.00,22.1,21.1,00.0,31.4,23.6,06.6,0000.0,0002.92,0030.74,0000.40
2021-12-30 19:05:00,,0807.2,5.02,0.00,22.1,21.0,00.0,31.4,23.6,06.7,0000.0,0003.24,0033.45,0000.46
2021-12-30 19:06:00,,0806.6,4.99,0.00,22.0,21.0,00.0,31.3,23.6,06.9,0000.0,0003.24,0033.82,0000.47
2021-12-30 19:07:00,,0807.1,4.99,0.00,22.0,21.0,00.0,31.3,23.6,06.9,0000.0,0003.26,0033.55,0000.49
2021-12-30 19:08:00,,0805.9,4.99,0.00,22.0,21.0,00.0,31.3,23.6,06.6,0000.0,0003.29,0033.73,0000.55
2021-12-30 19:09:00,,0807.1,5.01,0.00,22.0,21.5,00.0,31.3,23.7,06.8,0000.0,0003.57,0040.77,0000.61
2021-12-30 19:10:00,,0807.4,5.00,0.00,22.2,22.5,00.0,31.3,24.1,07.0,0000.0,0003.65,0042.28,0000.63
2021-12-30 19:11:00,,0807.6,5.01,0.00,22.3,23.3,00.0,31.4,24.4,06.9,0000.0,0003.55,0041.42,0000.60
2021-12-30 19:12:00,,0807.7,4.99,0.00,22.4,23.1,00.0,31.4,24.4,06.8,0000.0,0003.46,0040.36,0000.60
2021-12-30 19:13:00,,0807.3,5.01,0.00,22.4,22.7,00.0,31.4,24.2,06.9,0000.0,0003.47,0040.35,0000.60
2021-12-30 19:14:00,,0807.1,5.00,0.00,22.3,22.3,00.0,31.4,24.0,06.9,0000.0,0003.48,0040.67,0000.60
2021-12-30 19:15:00,,0806.7,5.00,0.00,22.2,21.9,00.0,31.4,23.9,06.9,0000.0,0002.91,0021.85,0000.51
2021-12-30 19:16:00,,0806.8,4.99,0.00,22.2,21.7,00.0,31.3,23.8,06.7,0000.0,0002.52,0018.53,0000.46
2021-12-30 19:17:00,,0806.5,5.01,0.00,22.1,21.6,00.0,31.3,23.8,06.6,0000.0,0002.49,0017.82,0000.50
2021-12-30 19:18:00,,0807.4,4.99,0.00,22.1,21.5,00.0,31.3,23.7,06.6,0000.0,0002.49,0017.41,0000.54
2021-12-30 19:19:00,,0807.9,5.00,0.00,22.0,21.4,00.0,31.3,23.6,06.6,0000.0,0002.55,0016.81,0000.55
2021-12-30 19:20:00,,0808.3,4.99,0.00,22.0,21.3,00.0,31.2,23.6,06.6,0000.0,0002.28,0010.98,0000.56
2021-12-30 19:21:00,,0808.3,5.01,0.00,22.0,21.3,00.0,31.2,23.6,06.5,0000.0,0002.12,0010.31,0000.60
2021-12-30 19:22:00,,0807.4,4.99,0.00,22.0,21.2,00.0,31.2,23.6,06.8,0000.0,0002.08,0010.78,0000.63
2021-12-30 19:23:00,,0807.0,5.00,0.00,21.9,21.2,00.0,31.2,23.6,07.0,0000.0,0002.06,0011.49,0000.63
2021-12-30 19:24:00,,0807.8,5.01,0.00,22.0,21.2,00.0,31.2,23.6,06.9,0000.0,0002.10,0011.79,0000.64
2021-12-30 19:25:00,,0807.6,5.01,0.00,21.9,21.2,00.0,31.1,23.6,07.1,0000.0,0002.06,0011.59,0000.65
2021-12-30 19:26:00,,0807.4,5.01,0.00,21.9,21.2,00.0,31.1,23.6,07.2,0000.0,0002.02,0011.43,0000.65
2021-12-30 19:27:00,,0807.2,5.00,0.00,21.9,21.1,00.0,31.1,23.5,07.1,0000.0,0002.02,0011.61,0000.65
2021-12-30 19:28:00,,0807.5,4.99,0.00,21.9,21.1,00.0,31.1,23.5,07.1,0000.0,0001.96,0011.74,0000.60
2021-12-30 19:29:00,,0807.3,5.00,0.00,21.8,21.1,00.0,31.1,23.5,07.2,0000.0,0001.84,0011.50,0000.54
2021-12-30 19:30:00,,0807.0,5.01,0.00,21.8,21.1,00.0,31.0,23.5,07.1,0000.0,0001.77,0011.59,0000.49
2021-12-30 19:31:00,,0807.5,4.99,0.00,21.8,21.0,00.0,31.0,23.5,07.0,0000.0,0001.59,0010.61,0000.42
2021-12-30 19:32:00,,0807.1,5.00,0.00,21.8,21.0,00.0,31.0,23.5,07.1,0000.0,0001.53,0009.37,0000.35
2021-12-30 19:33:00,,0807.2,5.00,0.00,21.8,21.1,00.0,31.0,23.5,07.2,0000.0,0001.48,0008.32,0000.30
2021-12-30 19:34:00,,0807.1,5.00,0.00,21.8,21.1,00.0,31.0,23.5,07.2,0000.0,0001.44,0007.53,0000.29
2021-12-30 19:35:00,,0806.8,4.99,0.00,21.8,21.1,00.0,31.0,23.5,07.3,0000.0,0001.33,0006.63,0000.26
2021-12-30 19:36:00,,0806.9,5.00,0.00,21.8,21.0,00.0,30.9,23.5,07.4,0000.0,0001.36,0006.92,0000.23
2021-12-30 19:37:00,,0806.9,5.01,0.00,21.8,21.0,00.0,30.9,23.5,07.6,0000.0,0001.38,0007.34,0000.24
2021-12-30 19:38:00,,0806.6,4.99,0.00,21.8,20.9,00.0,30.9,23.4,07.6,0000.0,0001.40,0007.96,0000.24
2021-12-30 19:39:00,,0806.9,5.00,0.00,21.8,20.8,00.0,30.9,23.4,07.5,0000.0,0001.39,0007.77,0000.23
2021-12-30 19:40:00,,0807.2,5.00,0.00,21.8,20.8,00.0,30.9,23.4,07.5,0000.0,0001.43,0007.88,0000.24
2021-12-30 19:41:00,,0807.3,5.02,0.00,21.7,20.8,00.0,30.9,23.3,07.4,0000.0,0001.35,0007.63,0000.23
2021-12-30 19:42:00,,0807.4,4.99,0.00,21.7,21.3,00.0,30.9,23.4,07.5,0000.0,0001.32,0007.44,0000.24
2021-12-30 19:43:00,,0807.5,5.01,0.00,21.9,22.3,00.0,30.9,23.8,07.4,0000.0,0001.36,0007.50,0000.26
2021-12-30 19:44:00,,0807.0,4.98,0.00,22.1,23.2,00.0,31.0,24.1,07.2,0000.0,0001.43,0007.84,0000.27
2021-12-30 19:45:00,,0807.1,5.00,0.00,22.2,23.0,00.0,31.0,24.2,07.0,0000.0,0001.53,0008.05,0000.28
2021-12-30 19:46:00,,0806.7,5.02,0.00,22.2,22.7,00.0,31.0,24.1,07.0,0000.0,0001.62,0008.60,0000.29
2021-12-30 19:47:00,,0806.2,4.99,0.00,22.2,22.4,00.0,31.1,24.0,07.0,0000.0,0001.74,0008.89,0000.31
2021-12-30 19:48:00,,0806.2,5.01,0.00,22.2,22.2,00.0,31.1,24.0,07.0,0000.0,0001.85,0009.27,0000.32
2021-12-30 19:49:00,,0806.4,5.00,0.00,22.2,22.0,00.0,31.1,24.0,07.0,0000.0,0001.97,0009.48,0000.39
2021-12-30 19:50:00,,0806.5,5.00,0.00,22.2,21.8,00.0,31.1,24.0,06.8,0000.0,0002.12,0010.32,0000.46
2021-12-30 19:51:00,,0806.5,4.99,0.00,22.2,21.6,00.0,31.1,23.9,06.9,0000.0,0002.12,0010.69,0000.46
2021-12-30 19:52:00,,0806.3,5.00,0.00,22.2,21.6,00.0,31.1,23.9,07.1,0000.0,0002.18,0011.46,0000.46
2021-12-30 19:53:00,,0805.8,5.01,0.00,22.2,21.5,00.0,31.1,23.9,07.1,0000.0,0002.27,0013.22,0000.47
2021-12-30 19:54:00,,0806.4,5.00,0.00,22.1,21.4,00.0,31.1,23.8,07.1,0000.0,0002.32,0014.22,0000.46
2021-12-30 19:55:00,,0806.1,4.99,0.00,22.1,21.3,00.0,31.1,23.8,07.1,0000.0,0002.34,0014.19,0000.45
2021-12-30 19:56:00,,0805.9,5.02,0.00,22.1,21.2,00.0,31.1,23.8,07.2,0000.0,0002.46,0015.18,0000.47
2021-12-30 19:57:00,,0806.1,5.00,0.00,22.0,21.1,00.0,31.1,23.7,07.2,0000.0,0002.63,0018.06,0000.50
2021-12-30 19:58:00,,0806.1,4.99,0.00,22.0,21.0,00.0,31.1,23.6,07.3,0000.0,0002.74,0022.50,0000.51
2021-12-30 19:59:00,,0806.0,5.02,0.00,22.0,21.0,00.0,31.0,23.6,07.2,0000.0,0003.00,0026.60,0000.52
